[[{"header":{"parameterUnit":"m.s-1","parameterCategory":1,"la1":30.2991,"la2":30.254,"lo1":-89.0895,"lo2":-89.0444,"dy":0.0017,"dx":0.0017,"nx":28,"ny":28,"refTime":"2024-05-30T09:00:00:Z","depth":0,"parameterNumber":2,"parameterNumberName":"U-component_of_WINDS"},"data":[0,0,0,0,0,0,0,0,0,0,0,0,0,0,0,0,0,0,0,0,0,0,0,0,0,0,0,0,0,0,0,0,0,0,0,0,0,0,0,0,0,0,0,0,0,0,0,0,0,0,0,0,0,0,0,0,0,0,-1.6594,-1.6595,0,-1.6658,-1.6659,-1.6659,-1.6694,-1.6694,-1.6694,-1.6694,-1.6758,-1.6759,-1.6761,0,0,0,0,0,0,0,0,0,0,0,0,0,-1.6499,-1.65,-1.6594,-1.6595,-1.6595,-1.6658,-1.6659,-1.666,-1.6694,-1.6694,-1.6694,-1.6694,-1.6757,-1.6759,-1.6761,0,0,0,0,0,0,0,0,0,0,0,0,0,-1.6549,-1.6501,-1.6594,-1.662,-1.6623,-1.6658,-1.6659,-1.666,-1.6694,-1.6694,-1.6694,-1.6694,-1.6757,-1.6759,-1.6761,-1.6774,0,0,-1.6769,-1.677,0,0,0,0,0,0,0,0,-1.6546,-1.6553,-1.6615,-1.6618,-1.6622,-1.6668,-1.6649,-1.6698,-1.6694,-1.6667,-1.6694,-1.6694,-1.6728,-1.6733,-1.6744,-1.6777,-1.678,-1.6769,-1.6771,-1.6772,-1.6772,0,0,0,0,0,0,0,-1.6543,-1.655,-1.6619,-1.6616,-1.662,-1.6628,-1.6635,-1.6658,-1.6696,-1.6669,-1.6672,-1.6679,-1.6729,-1.6742,-1.6746,-1.6781,-1.6769,-1.6771,-1.6773,-1.6774,-1.6827,-1.6827,0,0,0,0,0,0,-1.6535,-1.6547,-1.6617,-1.6621,-1.6584,-1.663,-1.6638,-1.6653,-1.6696,-1.6702,-1.6679,-1.6681,-1.6738,-1.6743,-1.6748,-1.6766,-1.6772,-1.6774,-1.6775,-1.6827,-1.6827,-1.6827,0,0,0,0,0,0,-1.6533,-1.6541,-1.6615,-1.6585,-1.6595,-1.6631,-1.6648,-1.6654,-1.6667,-1.6703,-1.671,-1.6685,-1.6738,-1.6745,-1.6768,-1.6769,-1.6775,-1.6777,-1.6827,-1.6827,-1.6827,-1.6801,0,0,0,0,0,0,-1.653,-1.654,-1.6546,-1.6585,-1.6596,-1.6633,-1.6648,-1.6655,-1.6671,-1.6674,-1.671,-1.6717,-1.6739,-1.6764,-1.677,-1.6772,-1.6779,-1.6827,-1.6827,-1.6827,-1.6802,-1.68,-1.6799,0,0,0,0,0,-1.6527,-1.6536,-1.6546,-1.6554,-1.6604,-1.6633,-1.664,-1.6666,-1.6671,-1.6677,-1.67,-1.6715,-1.6768,-1.6766,-1.6773,-1.6776,-1.6827,-1.6827,-1.6827,-1.6803,-1.6801,-1.6799,0,0,0,0,0,0,-1.6496,-1.6541,-1.6553,-1.6575,-1.66,-1.6639,-1.6647,-1.6662,-1.6686,-1.6687,-1.6717,-1.6725,-1.6745,-1.6763,-1.676,-1.679,-1.6799,-1.68,-1.6778,-1.6776,-1.6775,-1.677,-1.6781,0,0,0,0,0,-1.6492,-1.6512,-1.655,-1.6566,-1.6578,-1.661,-1.6624,-1.6642,-1.6668,-1.6679,-1.6704,-1.6729,-1.6751,-1.6764,-1.6787,-1.6805,-1.6813,-1.6811,-1.6809,-1.6807,-1.6808,-1.6819,-1.6818,-1.6826,-1.6826,-1.6826,0,0,-1.6483,-1.651,-1.6521,-1.6561,-1.6582,-1.6602,-1.6619,-1.6639,-1.6654,-1.6682,-1.6705,-1.6724,-1.6753,-1.6774,-1.6784,-1.6789,-1.6808,-1.6807,-1.6806,-1.6807,-1.6819,-1.6818,-1.6817,-1.6826,-1.6826,-1.6826,0,0,-1.6478,-1.6501,-1.6516,-1.6537,-1.657,-1.6591,-1.6594,-1.6631,-1.6645,-1.6669,-1.669,-1.6707,-1.6745,-1.6765,-1.678,-1.6782,-1.6797,-1.6788,-1.6779,-1.679,-1.6789,-1.6789,-1.6789,-1.6789,-1.6789,-1.6789,-1.6789,0,-1.6463,-1.6494,-1.6522,-1.6541,-1.6558,-1.6584,-1.66,-1.6619,-1.6656,-1.6667,-1.6672,-1.6719,-1.6741,-1.6767,-1.6767,-1.6778,-1.6783,-1.6784,-1.6787,-1.6787,-1.6787,-1.6788,-1.6788,-1.6788,-1.6788,-1.6788,-1.6788,0,-1.6474,-1.6496,-1.6504,-1.654,-1.6558,-1.6575,-1.6605,-1.6619,-1.6635,-1.6655,-1.6679,-1.6706,-1.6734,-1.6741,-1.6757,-1.6769,-1.6771,-1.6781,-1.679,-1.6784,-1.6786,-1.6786,-1.6786,-1.6786,-1.6787,-1.6787,0,0,-1.6452,-1.6503,-1.6506,-1.6522,-1.656,-1.6576,-1.6594,-1.6623,-1.6634,-1.6659,-1.6675,-1.6705,-1.6715,-1.6732,-1.675,-1.6759,-1.6759,-1.6768,-1.6769,-1.6765,-1.6773,-1.6766,-1.6766,-1.6769,-1.6769,-1.6769,-1.6771,0,-1.6452,-1.6486,-1.6512,-1.6536,-1.6556,-1.6581,-1.6597,-1.6621,-1.6641,-1.666,-1.6681,-1.6702,-1.6713,-1.6724,-1.6734,-1.6757,-1.6761,-1.6757,-1.6783,-1.6784,-1.6775,-1.6766,-1.6758,-1.6759,-1.6771,-1.6772,-1.6772,0,-1.6457,-1.6481,-1.6508,-1.6543,-1.6552,-1.6566,-1.6594,-1.6612,-1.6639,-1.6653,-1.6672,-1.6691,-1.671,-1.6717,-1.6744,-1.6741,-1.6753,-1.6766,-1.6767,-1.677,-1.6777,-1.677,-1.676,-1.676,-1.6773,-1.6773,-1.6773,0,-1.6438,-1.6477,-1.6498,-1.6512,-1.6553,-1.6562,-1.658,-1.6608,-1.6623,-1.6647,-1.6657,-1.6682,-1.6696,-1.6715,-1.674,-1.6743,-1.6764,-1.6774,-1.6776,-1.6775,-1.678,-1.6779,-1.6771,-1.6787,-1.6787,-1.6787,-1.6787,0,-1.6435,-1.645,-1.649,-1.6503,-1.6521,-1.6549,-1.6566,-1.6585,-1.661,-1.6627,-1.665,-1.6665,-1.6696,-1.6715,-1.6735,-1.6754,-1.676,-1.6771,-1.6776,-1.6769,-1.6768,-1.6778,-1.6778,-1.6787,-1.6787,-1.6787,-1.6787,0,-1.6417,-1.6444,-1.6469,-1.6506,-1.6516,-1.6527,-1.6559,-1.6572,-1.6592,-1.6613,-1.662,-1.6652,-1.6675,-1.6702,-1.6733,-1.6746,-1.6764,-1.6772,-1.6755,-1.6758,-1.6759,-1.6759,-1.6758,-1.6759,-1.6773,-1.6773,-1.6773,0,-1.6414,-1.6426,-1.6465,-1.6478,-1.6495,-1.6516,-1.6531,-1.656,-1.6575,-1.6607,-1.6616,-1.6641,-1.6663,-1.6699,-1.6725,-1.6749,-1.6757,-1.6755,-1.6761,-1.6753,-1.6757,-1.6756,-1.6757,-1.6753,-1.6753,-1.6753,-1.6753,0,-1.6405,-1.6418,-1.644,-1.6467,-1.6485,-1.6507,-1.653,-1.654,-1.6572,-1.6588,-1.6612,-1.6629,-1.6662,-1.6686,-1.6714,-1.6731,-1.6747,-1.6751,-1.6753,-1.6746,-1.6736,-1.6741,-1.6751,-1.6751,-1.6751,-1.6751,-1.6751,-1.6751,-1.6395,-1.6407,-1.6436,-1.646,-1.648,-1.6501,-1.6515,-1.6537,-1.6558,-1.6588,-1.6603,-1.6627,-1.6654,-1.6692,-1.6709,-1.6728,-1.6733,-1.6736,-1.6737,-1.6737,-1.6735,-1.6733,-1.6733,-1.6733,-1.6733,-1.6733,-1.6733,0,-1.6388,-1.6407,-1.6429,-1.6461,-1.6479,-1.6493,-1.6519,-1.6533,-1.6554,-1.6578,-1.6599,-1.6627,-1.6651,-1.6678,-1.6703,-1.6713,-1.6721,-1.6719,-1.6719,-1.6722,-1.6729,-1.6725,-1.6712,-1.6712,-1.6712,-1.6712,-1.6712,-1.6712,-1.6386,-1.6407,-1.6423,-1.6455,-1.6474,-1.6498,-1.6512,-1.6531,-1.6551,-1.6581,-1.6601,-1.6619,-1.6644,-1.6671,-1.6694,-1.6701,-1.6709,-1.6705,-1.6714,-1.672,-1.6722,-1.6723,-1.672,-1.6706,-1.6706,-1.6706,-1.6706,-1.6706]},{"header":{"parameterUnit":"m.s-1","parameterCategory":1,"la1":30.2991,"la2":30.254,"lo1":-89.0895,"lo2":-89.0444,"dy":0.0017,"dx":0.0017,"nx":28,"ny":28,"refTime":"2024-05-30T09:00:00:Z","depth":0,"parameterNumber":3,"parameterNumberName":"V-component_of_WINDS"},"data":[0,0,0,0,0,0,0,0,0,0,0,0,0,0,0,0,0,0,0,0,0,0,0,0,0,0,0,0,0,0,0,0,0,0,0,0,0,0,0,0,0,0,0,0,0,0,0,0,0,0,0,0,0,0,0,0,0,0,4.5047,4.5047,0,4.5089,4.509,4.509,4.5026,4.5023,4.5021,4.5019,4.5059,4.5062,4.5065,0,0,0,0,0,0,0,0,0,0,0,0,0,4.4904,4.4907,4.5047,4.5047,4.5048,4.5089,4.509,4.509,4.5026,4.5023,4.5021,4.5018,4.5058,4.5061,4.5065,0,0,0,0,0,0,0,0,0,0,0,0,0,4.4958,4.4908,4.5046,4.5021,4.5019,4.5089,4.509,4.509,4.5027,4.5023,4.502,4.5017,4.5056,4.5061,4.5066,4.5162,0,0,4.508,4.5082,0,0,0,0,0,0,0,0,4.4955,4.4964,4.5024,4.5023,4.5021,4.5049,4.5054,4.5114,4.5027,4.5023,4.5019,4.5015,4.5058,4.5062,4.5077,4.5164,4.5165,4.508,4.5083,4.5085,4.5087,0,0,0,0,0,0,0,4.4952,4.4961,4.5063,4.5025,4.5023,4.5005,4.5009,4.5065,4.5059,4.5024,4.5019,4.5025,4.5056,4.5073,4.5078,4.5166,4.508,4.5084,4.5087,4.5089,4.5332,4.5336,0,0,0,0,0,0,4.4952,4.4959,4.5062,4.5065,4.4979,4.5011,4.5015,4.5043,4.5058,4.5057,4.5028,4.5022,4.5067,4.5072,4.5079,4.5192,4.5085,4.509,4.5092,4.5329,4.5333,4.5337,0,0,0,0,0,0,4.4949,4.4962,4.506,4.5011,4.5022,4.5017,4.5049,4.5046,4.5062,4.5061,4.5059,4.5047,4.5064,4.5072,4.5142,4.5193,4.5092,4.5096,4.5324,4.533,4.5335,4.542,0,0,0,0,0,0,4.4945,4.4961,4.4999,4.5012,4.5025,4.5124,4.5052,4.5049,4.5071,4.5064,4.5079,4.5078,4.5062,4.5135,4.5147,4.5197,4.51,4.532,4.5327,4.5333,4.5412,4.5427,4.544,0,0,0,0,0,4.494,4.502,4.5001,4.5014,4.5072,4.5127,4.5134,4.5116,4.5076,4.5113,4.5112,4.5077,4.5185,4.5143,4.5155,4.5208,4.5317,4.5325,4.5333,4.5406,4.5425,4.544,0,0,0,0,0,0,4.5012,4.5022,4.5,4.5087,4.5107,4.5116,4.5162,4.5136,4.5167,4.5158,4.5133,4.5137,4.5211,4.5216,4.5169,4.5301,4.5244,4.5255,4.5296,4.5313,4.5327,4.5324,4.5104,0,0,0,0,0,4.5038,4.5084,4.5089,4.5165,4.5176,4.5168,4.5191,4.5175,4.5194,4.5202,4.5206,4.5225,4.5262,4.5288,4.5323,4.5413,4.5414,4.5455,4.5469,4.5481,4.549,4.5537,4.5555,4.5364,4.5364,4.5364,0,0,4.5092,4.5103,4.5133,4.5179,4.5193,4.5239,4.5175,4.5227,4.526,4.5209,4.5275,4.5279,4.5298,4.5378,4.5413,4.5384,4.5544,4.5491,4.55,4.5504,4.5548,4.5566,4.5582,4.5369,4.5368,4.5368,0,0,4.5214,4.5227,4.5292,4.5307,4.5328,4.5322,4.5338,4.5351,4.5352,4.5418,4.5381,4.5419,4.5486,4.55,4.5517,4.5644,4.5612,4.5656,4.5728,4.5774,4.5789,4.5803,4.5847,4.5864,4.5665,4.5665,4.5666,0,4.5278,4.5347,4.5328,4.5382,4.5403,4.536,4.5424,4.5439,4.5471,4.5486,4.5453,4.5535,4.5545,4.5627,4.5658,4.5673,4.5689,4.5654,4.5789,4.5802,4.5814,4.5856,4.5873,4.567,4.567,4.5669,4.5669,0,4.5424,4.5473,4.5522,4.5555,4.5581,4.564,4.5628,4.5657,4.5639,4.5636,4.5703,4.5713,4.5749,4.5768,4.575,4.5848,4.5829,4.5794,4.5735,4.5838,4.5877,4.5893,4.5678,4.5676,4.5674,4.5673,0,0,4.5592,4.5614,4.5632,4.5646,4.5667,4.5703,4.5759,4.5796,4.5821,4.5844,4.5889,4.5946,4.5914,4.5932,4.5915,4.5956,4.6055,4.5915,4.5915,4.594,4.6162,4.6189,4.6208,4.6035,4.6038,4.604,4.6161,0,4.5713,4.5812,4.5796,4.5891,4.5935,4.5895,4.5944,4.5961,4.5959,4.5995,4.5993,4.6033,4.5987,4.5998,4.6037,4.6035,4.6099,4.6026,4.6076,4.6078,4.6072,4.6229,4.6257,4.637,4.6176,4.6178,4.618,0,4.5868,4.5898,4.5998,4.6011,4.6029,4.6074,4.6105,4.614,4.6158,4.6154,4.6175,4.6151,4.6205,4.6147,4.6221,4.6172,4.6191,4.6193,4.6197,4.62,4.6135,4.6236,4.6405,4.6422,4.6204,4.6202,4.6201,0,4.598,4.6045,4.6113,4.6126,4.6144,4.6176,4.6184,4.6199,4.6222,4.6249,4.6263,4.6296,4.6314,4.6339,4.6324,4.6283,4.64,4.634,4.6397,4.6398,4.6424,4.6422,4.6598,4.6437,4.6437,4.6437,4.6436,0,4.6116,4.6179,4.6164,4.6206,4.6274,4.6254,4.6322,4.6325,4.6338,4.6379,4.6346,4.6384,4.6362,4.6398,4.6387,4.645,4.6458,4.6455,4.6451,4.6458,4.6458,4.647,4.6461,4.6441,4.644,4.6439,4.6438,0,4.6253,4.6245,4.6317,4.6327,4.6331,4.6381,4.639,4.6428,4.6424,4.6476,4.6487,4.648,4.6521,4.6509,4.6553,4.6545,4.6624,4.661,4.6619,4.6615,4.6672,4.6667,4.6862,4.6886,4.671,4.6711,4.6713,0,4.6341,4.6388,4.6404,4.6429,4.6441,4.6482,4.6505,4.6487,4.6512,4.6536,4.6571,4.661,4.664,4.6707,4.6705,4.6738,4.6725,4.6791,4.6729,4.6735,4.6725,4.6722,4.6726,4.6803,4.6805,4.6806,4.6808,0,4.6497,4.649,4.6526,4.6561,4.659,4.6615,4.6638,4.666,4.6643,4.6673,4.6715,4.6739,4.6784,4.6822,4.6852,4.6859,4.6831,4.6827,4.6842,4.6849,4.6852,4.6851,4.6651,4.6823,4.6821,4.682,4.6819,4.6819,4.6611,4.6651,4.6668,4.6709,4.6724,4.6746,4.6782,4.6783,4.6819,4.6855,4.6841,4.689,4.6905,4.6943,4.6954,4.6991,4.6965,4.6987,4.6992,4.6998,4.7005,4.6847,4.6996,4.6996,4.6995,4.6995,4.6995,0,4.6765,4.6774,4.6812,4.6845,4.6876,4.6848,4.6871,4.6899,4.6942,4.696,4.699,4.7038,4.7075,4.7076,4.711,4.7139,4.7127,4.7149,4.7146,4.7148,4.7026,4.701,4.7158,4.7158,4.7158,4.7158,4.7158,4.7158,4.6848,4.6915,4.691,4.6983,4.6991,4.7039,4.7055,4.7074,4.7088,4.7144,4.7175,4.7176,4.7187,4.7221,4.7253,4.7252,4.7266,4.7293,4.7287,4.7173,4.7157,4.7141,4.7126,4.7296,4.7296,4.7406,4.7407,4.7408]}]]